Abingdon, VA

5:44 AM EDT on May 21, 2018 (GMT -0400)
Virginia Highlands

Weather History for KVJI - December, 2013

Change the Weather History Date:

Thursday, December 26, 2013

  Actual Average (KTRI) Record (KTRI)
Temperature  
Mean Temperature 33 °F -  
Max Temperature 43 °F 42 °F 73 °F (2015)
Min Temperature 23 °F 24 °F 0 °F (1983)
Degree Days  
Heating Degree Days 32    
Moisture  
Dew Point 25 °F    
Average Humidity 74    
Maximum Humidity 92    
Minimum Humidity 51    
Precipitation  
Precipitation 0.00 in - - ()
Sea Level Pressure  
Sea Level Pressure 30.30 in    
Wind  
Wind Speed 3 mph (WNW)    
Max Wind Speed 15 mph    
Max Gust Speed 20 mph    
Visibility 10 miles    
Events      
Averages and records for this station are not official NWS values.
T = Trace of Precipitation, MM = Missing Value Source: NWS Daily Summary

Daily Weather History Graph

Daily Weather History Graph

Search for Another Location

Airport or City:

Astronomy

Dec. 26, 2013 Rise Set
Actual Time 7:39 AM EST 5:18 PM EST
Civil Twilight 7:10 AM EST 5:47 PM EST
Nautical Twilight 6:37 AM EST 6:20 PM EST
Astronomical Twilight 6:06 AM EST 6:51 PM EST
Moon 1:13 AM EST (12/26) 12:47 PM EST (12/26)
Length of Visible Light 10h 37m
Length of Day
9h 39m
Last Quarter, 38% of the Moon is Illuminated
Dec 26
Last Quarter
Jan 1
New
Jan 7
First Quarter
Jan 15
Full
Jan 24
Last Quarter

Hourly Weather History & Observations

Time (EST) Temp. Windchill Dew Point Humidity Pressure Visibility Wind Dir Wind Speed Gust Speed Precip Events Conditions
12:15 AM 27.5 °F - 21.2 °F 77% 30.25 in 10.0 mi Calm Calm - N/A   Clear
12:35 AM 26.4 °F - 21.6 °F 82% 30.25 in 10.0 mi Calm Calm - N/A   Clear
12:55 AM 25.7 °F - 21.4 °F 84% 30.24 in 10.0 mi Calm Calm - N/A   Clear
1:15 AM 25.5 °F - 21.0 °F 83% 30.24 in 10.0 mi Calm Calm - N/A   Clear
1:35 AM 25.0 °F - 21.4 °F 86% 30.25 in 10.0 mi Calm Calm - N/A   Clear
1:55 AM 24.4 °F - 21.2 °F 87% 30.25 in 10.0 mi Calm Calm - N/A   Clear
2:15 AM 23.7 °F - 21.7 °F 92% 30.25 in 10.0 mi Calm Calm - N/A   Clear
2:35 AM 24.6 °F - 21.7 °F 89% 30.25 in 10.0 mi Calm Calm - N/A   Clear
2:55 AM 25.9 °F - 21.9 °F 85% 30.26 in 10.0 mi Calm Calm - N/A   Clear
3:15 AM 27.3 °F 23.4 °F 21.6 °F 79% 30.27 in 10.0 mi West 3.5 mph - N/A   Clear
3:35 AM 24.3 °F - 21.4 °F 89% 30.27 in 10.0 mi Calm Calm - N/A   Mostly Cloudy
3:55 AM 24.8 °F - 22.3 °F 90% 30.27 in 10.0 mi Calm Calm - N/A   Scattered Clouds
4:15 AM 24.8 °F - 21.9 °F 89% 30.27 in 10.0 mi Calm Calm - N/A   Scattered Clouds
4:35 AM 23.5 °F - 21.2 °F 91% 30.26 in 10.0 mi Calm Calm - N/A   Scattered Clouds
4:55 AM 25.3 °F - 22.6 °F 89% 30.26 in 10.0 mi Calm Calm - N/A   Overcast
5:15 AM 25.5 °F - 23.0 °F 90% 30.27 in 10.0 mi Calm Calm - N/A   Overcast
5:35 AM 28.0 °F 24.2 °F 23.7 °F 84% 30.27 in 10.0 mi NNW 3.5 mph - N/A   Overcast
5:55 AM 28.4 °F - 24.4 °F 85% 30.28 in 10.0 mi Calm Calm - N/A   Overcast
6:15 AM 28.6 °F - 25.0 °F 86% 30.28 in 10.0 mi Calm Calm - N/A   Overcast
6:35 AM 29.3 °F 25.6 °F 24.6 °F 83% 30.27 in 10.0 mi West 3.5 mph - N/A   Overcast
6:55 AM 28.9 °F - 24.8 °F 84% 30.28 in 10.0 mi Calm Calm - N/A   Overcast
7:15 AM 30.0 °F 24.1 °F 23.5 °F 77% 30.28 in 10.0 mi West 5.8 mph - N/A   Overcast
7:35 AM 28.4 °F 24.6 °F 23.5 °F 82% 30.28 in 10.0 mi West 3.5 mph - N/A   Scattered Clouds
7:55 AM 28.2 °F 22.0 °F 23.5 °F 83% 30.29 in 10.0 mi West 5.8 mph - N/A   Clear
8:15 AM 27.7 °F 22.4 °F 23.7 °F 85% 30.30 in 10.0 mi West 4.6 mph - N/A   Clear
8:35 AM 30.0 °F 23.2 °F 24.3 °F 79% 30.30 in 10.0 mi West 6.9 mph - N/A   Clear
8:55 AM 31.6 °F 25.1 °F 25.5 °F 78% 30.30 in 10.0 mi West 6.9 mph - N/A   Clear
9:15 AM 32.4 °F 26.0 °F 26.4 °F 79% 30.31 in 10.0 mi West 6.9 mph - N/A   Clear
9:35 AM 33.8 °F 27.0 °F 27.5 °F 78% 30.32 in 10.0 mi West 8.1 mph - N/A   Clear
9:55 AM 34.7 °F 28.1 °F 28.4 °F 78% 30.32 in 10.0 mi West 8.1 mph - N/A   Clear
10:15 AM 36.1 °F 28.7 °F 28.8 °F 75% 30.32 in 10.0 mi West 10.4 mph - N/A   Clear
10:35 AM 37.8 °F 30.7 °F 29.5 °F 72% 30.33 in 10.0 mi West 10.4 mph - N/A   Clear
10:55 AM 38.3 °F 31.9 °F 28.2 °F 67% 30.33 in 10.0 mi WNW 9.2 mph - N/A   Clear
11:15 AM 39.2 °F 33.6 °F 27.7 °F 63% 30.33 in 10.0 mi WNW 8.1 mph - N/A   Clear
11:35 AM 39.4 °F 32.7 °F 26.2 °F 59% 30.32 in 10.0 mi WNW 10.4 mph - N/A   Clear
11:55 AM 40.1 °F 33.6 °F 26.2 °F 58% 30.32 in 10.0 mi WNW 10.4 mph - N/A   Clear
12:15 PM 40.5 °F 32.5 °F 26.8 °F 58% 30.31 in 10.0 mi WNW 15.0 mph 19.6 mph N/A   Clear
12:35 PM 40.6 °F 33.4 °F 27.3 °F 59% 30.30 in 10.0 mi WNW 12.7 mph 16.1 mph N/A   Clear
12:55 PM 41.7 °F 35.6 °F 27.5 °F 57% 30.30 in 10.0 mi WNW 10.4 mph - N/A   Clear
1:15 PM 41.9 °F 38.2 °F 27.3 °F 56% 30.29 in 10.0 mi NW 5.8 mph - N/A   Clear
1:35 PM 41.9 °F 36.9 °F 27.3 °F 56% 30.28 in 10.0 mi WNW 8.1 mph - N/A   Clear
1:55 PM 42.8 °F 37.0 °F 27.9 °F 56% 30.28 in 10.0 mi West 10.4 mph - N/A   Clear
2:15 PM 43.0 °F 38.8 °F 27.5 °F 54% 30.28 in 10.0 mi NW 6.9 mph - N/A   Clear
2:35 PM 43.0 °F 38.2 °F 26.2 °F 52% 30.27 in 10.0 mi North 8.1 mph - N/A   Clear
2:55 PM 43.2 °F 38.4 °F 26.1 °F 51% 30.27 in 10.0 mi North 8.1 mph - N/A   Scattered Clouds
3:15 PM 42.8 °F 39.3 °F 26.4 °F 52% 30.27 in 10.0 mi NW 5.8 mph - N/A   Scattered Clouds
3:35 PM 43.3 °F 39.2 °F 26.6 °F 52% 30.27 in 10.0 mi West 6.9 mph - N/A   Clear
3:55 PM 43.0 °F 39.5 °F 26.6 °F 52% 30.28 in 10.0 mi WNW 5.8 mph - N/A   Scattered Clouds
4:15 PM 42.8 °F 39.3 °F 26.8 °F 53% 30.27 in 10.0 mi West 5.8 mph - N/A   Scattered Clouds
4:35 PM 42.3 °F 39.4 °F 26.4 °F 54% 30.28 in 10.0 mi WNW 4.6 mph - N/A   Clear
4:55 PM 41.0 °F 38.0 °F 26.6 °F 57% 30.28 in 10.0 mi West 4.6 mph - N/A   Scattered Clouds
5:15 PM 40.6 °F - 26.6 °F 57% 30.29 in 10.0 mi Calm Calm - N/A   Overcast
5:35 PM 38.8 °F - 27.1 °F 63% 30.29 in 10.0 mi Calm Calm - N/A   Scattered Clouds
5:55 PM 36.7 °F 34.1 °F 27.1 °F 68% 30.30 in 10.0 mi NNW 3.5 mph - N/A   Clear
6:15 PM 34.9 °F 32.0 °F 26.8 °F 72% 30.31 in 10.0 mi NNW 3.5 mph - N/A   Scattered Clouds
6:35 PM 34.3 °F - 26.4 °F 73% 30.31 in 10.0 mi Calm Calm - N/A   Scattered Clouds
6:55 PM 32.7 °F - 26.4 °F 78% 30.32 in 10.0 mi Calm Calm - N/A   Scattered Clouds
7:15 PM 32.9 °F - 25.0 °F 73% 30.32 in 10.0 mi Calm Calm - N/A   Clear
7:35 PM 32.0 °F - 24.4 °F 74% 30.33 in 10.0 mi Calm Calm - N/A   Clear
7:55 PM 31.1 °F - 24.6 °F 77% 30.33 in 10.0 mi Calm Calm - N/A   Clear
8:15 PM 30.6 °F 27.1 °F 24.4 °F 78% 30.34 in 10.0 mi South 3.5 mph - N/A   Clear
8:35 PM 31.5 °F - 24.6 °F 76% 30.33 in 10.0 mi Calm Calm - N/A   Clear
8:55 PM 32.0 °F - 24.6 °F 74% 30.34 in 10.0 mi Calm Calm - N/A   Clear
9:15 PM 30.4 °F - 24.1 °F 77% 30.34 in 10.0 mi Calm Calm - N/A   Clear
9:35 PM 30.7 °F - 23.5 °F 75% 30.34 in 10.0 mi Calm Calm - N/A   Clear
9:55 PM 29.3 °F - 23.4 °F 78% 30.34 in 10.0 mi Calm Calm - N/A   Clear
10:15 PM 29.3 °F - 23.5 °F 79% 30.34 in 10.0 mi Calm Calm - N/A   Clear
10:35 PM 28.8 °F - 23.7 °F 81% 30.34 in 10.0 mi Calm Calm - N/A   Clear
10:55 PM 28.9 °F 25.2 °F 23.4 °F 80% 30.35 in 10.0 mi East 3.5 mph - N/A   Clear
11:15 PM 30.0 °F - 23.4 °F 76% 30.34 in 10.0 mi Calm Calm - N/A   Clear
11:35 PM 29.7 °F - 23.0 °F 76% 30.34 in 10.0 mi Calm Calm - N/A   Clear
11:55 PM 29.3 °F - 22.8 °F 77% 30.34 in 10.0 mi Calm Calm - N/A   Clear